Location: AstroGeek's Observatory
(41.9520°N, 70.9880°W)
Time: 23:47:00
(UTC-04:00)

ISS - All Passes

Search period start: 18 September 2014 00:00
Search period end: 28 September 2014 00:00
Orbit: 414 x 417 km, 51.6° (Epoch: 18 September)

Date Brightness Start Highest point End Pass type
(mag) Time Alt. Az. Time Alt. Az. Time Alt. Az.
18 Sep - 03:16:37 10° SW 03:19:50 49° SE 03:23:04 10° ENE visible
18 Sep - 04:53:45 10° W 04:56:41 28° NNW 04:59:37 10° NE visible
18 Sep - 06:32:07 10° NW 06:34:12 15° N 06:36:18 10° NE daylight
18 Sep - 08:09:05 10° NW 08:11:48 23° NNE 08:14:32 10° ENE daylight
18 Sep - 09:45:30 10° WNW 09:48:50 77° SW 09:52:08 10° SE daylight
19 Sep - 02:28:17 10° SSW 02:31:10 28° SE 02:34:03 10° ENE visible
19 Sep - 04:04:37 10° W 04:07:47 39° NNW 04:10:57 10° NE visible
19 Sep - 05:42:57 10° NW 05:45:10 16° N 05:47:24 10° NE visible
19 Sep - 07:20:22 10° NW 07:22:50 19° NNE 07:25:17 10° ENE daylight
19 Sep - 08:56:44 10° NW 09:00:02 63° NNE 09:03:20 10° ESE daylight
19 Sep - 10:34:19 10° W 10:36:25 16° SW 10:38:32 10° S daylight
20 Sep - 01:40:22 10° S 01:42:31 16° SE 01:44:40 10° E night (unlit)
20 Sep - 03:15:36 10° WSW 03:18:54 62° NNW 03:22:13 10° NE visible
20 Sep - 04:53:41 10° WNW 04:56:07 19° NNW 04:58:35 10° NE visible
20 Sep - 06:31:33 10° NW 06:33:47 16° N 06:36:00 10° NE daylight
20 Sep - 08:07:59 10° NW 08:11:10 40° NNE 08:14:19 10° E daylight
20 Sep - 09:44:54 10° WNW 09:47:46 27° SW 09:50:38 10° SSE daylight
21 Sep - 02:26:44 10° SW 02:30:03 78° SE 02:33:24 10° ENE night (unlit)
21 Sep - 04:04:21 10° WNW 04:07:04 23° NNW 04:09:48 10° NE visible
21 Sep - 05:42:35 10° NW 05:44:40 15° N 05:46:46 10° NE visible
21 Sep - 07:19:14 10° NW 07:22:11 28° NNE 07:25:08 10° E daylight
21 Sep - 08:55:48 10° WNW 08:59:02 48° SW 09:02:14 10° SE daylight
22 Sep - 01:38:04 10° SSW 01:41:14 43° SE 01:44:25 10° ENE night (unlit)
22 Sep - 03:15:03 10° W 03:18:02 30° NNW 03:21:01 10° NE visible
22 Sep - 04:53:25 10° NW 04:55:32 16° N 04:57:38 10° NE visible
22 Sep - 06:30:27 10° NW 06:33:08 22° NNE 06:35:48 10° ENE daylight
22 Sep - 08:06:51 10° NW 08:10:11 86° SW 08:13:30 10° SE daylight
22 Sep - 09:46:15 10° SW 09:46:22 10° SW 09:46:30 10° SW daylight
23 Sep - 00:49:40 10° SSW 00:52:26 25° SE 00:55:13 10° ENE night (unlit)
23 Sep - 02:25:48 10° WSW 02:29:00 43° NNW 02:32:13 10° NE night (unlit)
23 Sep - 04:04:06 10° NW 04:06:21 17° N 04:08:37 10° NE visible
23 Sep - 05:41:36 10° NW 05:44:00 18° NNE 05:46:24 10° ENE visible
23 Sep - 07:17:57 10° NW 07:21:15 57° NNE 07:24:31 10° ESE daylight
23 Sep - 08:55:20 10° W 08:57:40 18° SW 08:59:59 10° S daylight
24 Sep - 00:01:47 10° SSE 00:03:40 14° SE 00:05:34 10° E night (unlit)
24 Sep - 01:36:41 10° WSW 01:40:00 69° NNW 01:43:20 10° NE night (unlit)
24 Sep - 03:14:40 10° WNW 03:17:10 19° NNW 03:19:41 10° NE visible
24 Sep - 04:52:37 10° NW 04:54:48 16° N 04:56:59 10° NE visible
24 Sep - 06:29:05 10° NW 06:32:13 37° NNE 06:35:20 10° E daylight
24 Sep - 08:05:53 10° WNW 08:08:52 30° SW 08:11:49 10° SSE daylight
25 Sep - 00:47:43 10° SW 00:51:01 69° SE 00:54:21 10° ENE night (unlit)
25 Sep - 02:25:12 10° WNW 02:27:59 24° NNW 02:30:46 10° NE night (unlit)
25 Sep - 04:03:28 10° NW 04:05:33 15° N 04:07:38 10° NE visible
25 Sep - 05:40:12 10° NW 05:43:05 26° NNE 05:45:58 10° E visible
25 Sep - 07:16:42 10° WNW 07:19:58 54° SW 07:23:13 10° SE daylight
25 Sep - 23:58:58 10° SSW 00:02:04 38° SE 00:05:12 10° ENE night (unlit)
26 Sep - 01:35:46 10° W 01:38:49 32° NNW 01:41:51 10° NE night (unlit)
26 Sep - 03:14:08 10° NW 03:16:16 16° N 03:18:24 10° NE visible
26 Sep - 04:51:16 10° NW 04:53:53 21° NNE 04:56:29 10° ENE visible
26 Sep - 06:27:37 10° NW 06:30:58 85° NE 06:34:17 10° SE daylight
26 Sep - 08:06:01 10° WSW 08:07:12 12° SW 08:08:22 10° SSW daylight
26 Sep - 23:10:31 10° S 23:13:09 22° SE 23:15:48 10° E night (unlit)
27 Sep - 00:46:25 10° WSW 00:49:39 47° NNW 00:52:54 10° NE night (unlit)
27 Sep - 02:24:39 10° NW 02:26:57 17° N 02:29:16 10° NE night (unlit)
27 Sep - 04:02:15 10° NW 04:04:36 18° N 04:06:57 10° NE visible
27 Sep - 05:38:36 10° NW 05:41:52 51° NNE 05:45:07 10° ESE visible
27 Sep - 07:15:49 10° W 07:18:20 20° SW 07:20:51 10° S daylight
27 Sep - 22:22:43 10° SSE 22:24:15 13° SE 22:25:48 10° ESE night (unlit)
27 Sep - 23:57:12 10° WSW 00:00:15 70° W 00:00:00 59° WSW night (unlit)
